Stuttgart Airport

Airport
ICAO code: 
EDDS
IATA Code: 
STR
Summary
ICAO Region: 
EUR
Territory: 
Location: 
Echterdingen, Stuttgart,
Serving: 
Stuttgart
Elevation: 
1276 ft
Coordinates: 
Aerial View: 
48° 41' 16.983" N, 9° 12' 37.356" E
Metar
Observation
EDDS 221350Z 30007KT 9999 BKN011 04/02 Q1032 NOSIG
Station
Stuttgart-Echterdingen
Date/Time
2022-01-22 13:50:00
Wind direction
300°
Wind speed
07 kts
Lowest cloud amount
broken clouds
Temperature
4°C
Dew point
2°C
Humidity
86%
QNH
1032 hPa
Weather condition
n/a

Description

International airport serving Stuttgart, Germany.

Climatology

Temperate Marine climate/Oceanic climate (Köppen climate classification Cfb) - Moderately cool summer and comparatively warm winter.

Runways

Designator Length Width Surface Rops
7/25 3345 45 CON Yes/Yes
Airport map: 
Aerial View: 

SKYbrary Partners:

Safety knowledge contributed by: